Total_Precipitation_Accumulation
0.15 0.14 0.12 0.07 0.07 0.04 0.04 0.04 0.05 0.06 0.03 0.01 0.01 0.02 0.04 0.03 0.02 0.04 0.04 0.04 0.03 0.04 0.04 0.04 0.03 0.03 0.06 0.06 0.04 0.04 0.05 0.05 0.05 0.01 0.01 0.02 0.03 0.02 0.01 0.00 0.00 0.00 0.00
0.17 0.15 0.15 0.06 0.05 0.07 0.07 0.09 0.08 0.09 0.07 0.05 0.05 0.04 0.04 0.03 0.03 0.02 0.04 0.05 0.05 0.04 0.02 0.05 0.08 0.11 0.11 0.07 0.05 0.05 0.05 0.06 0.06 0.04 0.02 0.02 0.02 0.01 0.00 0.00 0.00 0.00 0.00
0.23 0.27 0.24 0.26 0.21 0.12 0.12 0.16 0.17 0.18 0.17 0.17 0.14 0.08 0.03 0.01 0.01 0.01 0.02 0.03 0.04 0.05 0.07 0.11 0.12 0.18 0.19 0.12 0.09 0.07 0.06 0.05 0.07 0.11 0.10 0.06 0.02 0.00 0.00 0.00 0.00 0.00 0.00
0.15 0.23 0.26 0.26 0.30 0.28 0.25 0.22 0.20 0.18 0.17 0.16 0.11 0.06 0.02 0.01 0.01 0.01 0.00 0.00 0.00 0.01 0.03 0.08 0.16 0.19 0.18 0.19 0.17 0.10 0.11 0.14 0.13 0.11 0.12 0.12 0.09 0.03 0.02 0.02 0.01 0.00 0.00
0.07 0.10 0.18 0.24 0.30 0.31 0.26 0.18 0.15 0.12 0.09 0.08 0.06 0.04 0.03 0.01 0.01 0.01 0.00 0.00 0.00 0.01 0.02 0.05 0.15 0.23 0.22 0.20 0.17 0.17 0.14 0.18 0.24 0.24 0.21 0.13 0.12 0.09 0.05 0.04 0.04 0.04 0.05
0.15 0.22 0.16 0.37 0.29 0.21 0.26 0.28 0.21 0.19 0.10 0.11 0.09 0.05 0.03 0.02 0.03 0.01 0.01 0.00 0.01 0.06 0.10 0.11 0.19 0.27 0.24 0.29 0.27 0.26 0.24 0.20 0.18 0.18 0.20 0.18 0.10 0.08 0.10 0.16 0.18 0.11 0.05
0.32 0.68 0.61 0.60 0.71 0.51 0.18 0.22 0.17 0.20 0.15 0.13 0.08 0.03 0.03 0.02 0.03 0.02 0.03 0.01 0.02 0.10 0.20 0.20 0.18 0.26 0.33 0.36 0.49 0.55 0.56 0.50 0.34 0.24 0.21 0.17 0.13 0.09 0.10 0.19 0.22 0.16 0.10
0.02 0.23 0.58 0.64 0.86 0.83 0.48 0.25 0.27 0.14 0.15 0.06 0.04 0.03 0.03 0.03 0.03 0.02 0.04 0.01 0.01 0.04 0.07 0.13 0.24 0.26 0.26 0.36 0.45 0.55 0.62 0.70 0.67 0.52 0.39 0.34 0.31 0.31 0.35 0.28 0.23 0.27 0.31
0.01 0.02 0.09 0.33 0.43 0.51 0.55 0.37 0.15 0.10 0.06 0.04 0.02 0.02 0.01 0.02 0.03 0.02 0.03 0.01 0.01 0.03 0.06 0.12 0.24 0.31 0.45 0.53 0.52 0.59 0.61 0.62 0.74 0.70 0.59 0.54 0.49 0.49 0.50 0.41 0.36 0.34 0.36
0.03 0.03 0.01 0.01 0.06 0.15 0.31 0.38 0.25 0.14 0.15 0.10 0.06 0.03 0.04 0.03 0.05 0.06 0.08 0.03 0.03 0.02 0.02 0.06 0.15 0.22 0.37 0.53 0.53 0.54 0.61 0.68 0.67 0.72 0.72 0.63 0.64 0.60 0.58 0.53 0.50 0.45 0.37
0.01 0.01 0.01 0.01 0.02 0.04 0.04 0.12 0.26 0.29 0.29 0.31 0.28 0.21 0.15 0.11 0.08 0.06 0.07 0.06 0.04 0.04 0.03 0.02 0.03 0.07 0.15 0.29 0.40 0.41 0.46 0.51 0.57 0.61 0.62 0.57 0.48 0.45 0.45 0.43 0.41 0.38 0.35
0.00 0.00 0.00 0.01 0.01 0.01 0.02 0.05 0.07 0.18 0.29 0.32 0.32 0.29 0.26 0.25 0.26 0.21 0.12 0.08 0.08 0.05 0.07 0.06 0.07 0.05 0.06 0.10 0.15 0.22 0.25 0.28 0.32 0.39 0.40 0.41 0.38 0.35 0.34 0.35 0.36 0.34 0.32
0.00 0.00 0.00 0.00 0.00 0.00 0.00 0.02 0.03 0.05 0.09 0.16 0.22 0.24 0.25 0.22 0.19 0.19 0.18 0.14 0.10 0.06 0.09 0.12 0.10 0.07 0.09 0.10 0.12 0.10 0.07 0.06 0.08 0.12 0.17 0.24 0.27 0.30 0.25 0.21 0.19 0.21 0.22
0.00 0.00 0.00 0.00 0.00 0.00 0.00 0.00 0.01 0.03 0.05 0.07 0.10 0.11 0.13 0.14 0.14 0.12 0.13 0.15 0.14 0.11 0.10 0.08 0.06 0.06 0.05 0.10 0.12 0.11 0.10 0.12 0.10 0.09 0.10 0.14 0.15 0.16 0.16 0.14 0.13 0.13 0.10
0.00 0.00 0.00 0.00 0.00 0.00 0.01 0.02 0.02 0.06 0.05 0.06 0.08 0.09 0.09 0.11 0.17 0.15 0.14 0.14 0.13 0.15 0.15 0.13 0.11 0.09 0.10 0.12 0.13 0.13 0.13 0.14 0.16 0.19 0.17 0.15 0.13 0.11 0.09 0.08 0.09 0.08 0.08
0.00 0.00 0.00 0.00 0.00 0.00 0.00 0.00 0.00 0.01 0.01 0.03 0.04 0.05 0.06 0.10 0.09 0.09 0.09 0.09 0.10 0.11 0.08 0.10 0.12 0.13 0.14 0.15 0.16 0.19 0.19 0.18 0.18 0.15 0.14 0.13 0.13 0.13 0.12 0.09 0.09 0.08 0.09
0.00 0.00 0.00 0.00 0.00 0.00 0.00 0.00 0.00 0.00 0.00 0.00 0.01 0.02 0.02 0.04 0.04 0.05 0.06 0.06 0.06 0.04 0.05 0.06 0.07 0.08 0.09 0.10 0.11 0.11 0.12 0.12 0.11 0.09 0.09 0.08 0.07 0.05 0.04 0.04 0.04 0.04 0.04
0.00 0.00 0.00 0.00 0.00 0.00 0.00 0.00 0.00 0.00 0.00 0.00 0.00 0.00 0.00 0.00 0.00 0.01 0.01 0.01 0.01 0.01 0.03 0.03 0.04 0.04 0.05 0.05 0.05 0.06 0.06 0.06 0.05 0.05 0.04 0.04 0.03 0.02 0.02 0.02 0.02 0.02 0.01
0.00 0.00 0.00 0.00 0.00 0.00 0.00 0.00 0.00 0.00 0.00 0.00 0.00 0.00 0.00 0.00 0.00 0.00 0.00 0.00 0.00 0.00 0.00 0.00 0.00 0.00 0.00 0.00 0.00 0.00 0.00 0.00 0.00 0.00 0.00 0.00 0.00 0.00 0.00 0.00 0.00 0.00 0.00
0.00 0.00 0.00 0.00 0.00 0.00 0.00 0.00 0.00 0.00 0.00 0.00 0.00 0.00 0.00 0.00 0.00 0.00 0.00 0.00 0.00 0.00 0.00 0.00 0.00 0.00 0.00 0.00 0.00 0.00 0.00 0.00 0.00 0.00 0.00 0.00 0.00 0.00 0.00 0.00 0.00 0.00 0.00
0.00 0.00 0.00 0.00 0.00 0.00 0.00 0.00 0.00 0.00 0.00 0.00 0.00 0.00 0.00 0.00 0.00 0.00 0.00 0.00 0.00 0.00 0.00 0.00 0.00 0.00 0.00 0.00 0.00 0.00 0.00 0.00 0.00 0.00 0.00 0.00 0.00 0.00 0.00 0.00 0.00 0.00 0.00
0.00 0.00 0.00 0.00 0.00 0.00 0.00 0.00 0.00 0.00 0.00 0.00 0.00 0.00 0.00 0.00 0.00 0.00 0.00 0.00 0.00 0.00 0.00 0.00 0.00 0.00 0.00 0.00 0.00 0.00 0.00 0.00 0.00 0.00 0.00 0.00 0.00 0.00 0.00 0.00 0.00 0.00 0.00
0.00 0.00 0.00 0.00 0.00 0.00 0.00 0.00 0.00 0.00 0.00 0.00 0.00 0.00 0.00 0.00 0.00 0.00 0.00 0.00 0.00 0.00 0.00 0.00 0.00 0.00 0.00 0.00 0.00 0.00 0.00 0.00 0.00 0.00 0.00 0.00 0.00 0.00 0.00 0.00 0.00 0.00 0.00
0.00 0.00 0.00 0.00 0.00 0.00 0.00 0.00 0.00 0.00 0.00 0.00 0.00 0.00 0.00 0.00 0.00 0.00 0.00 0.00 0.00 0.00 0.00 0.00 0.00 0.00 0.00 0.00 0.00 0.00 0.00 0.00 0.00 0.00 0.00 0.00 0.00 0.00 0.00 0.00 0.00 0.00 0.00
0.00 0.00 0.00 0.00 0.00 0.00 0.00 0.00 0.00 0.00 0.00 0.00 0.00 0.00 0.00 0.00 0.00 0.00 0.00 0.00 0.00 0.00 0.00 0.00 0.00 0.00 0.00 0.00 0.00 0.00 0.00 0.00 0.00 0.00 0.00 0.00 0.00 0.00 0.00 0.00 0.00 0.00 0.00
0.00 0.00 0.00 0.00 0.00 0.00 0.00 0.00 0.00 0.00 0.00 0.00 0.00 0.00 0.00 0.00 0.00 0.00 0.00 0.00 0.00 0.00 0.00 0.00 0.00 0.00 0.00 0.00 0.00 0.00 0.00 0.00 0.00 0.00 0.00 0.00 0.00 0.00 0.00 0.00 0.00 0.00 0.00